Regional Weather Roundup
Issued by NWS Wakefield, VA

Home | Current Version | Previous Version | Text Only | Print | Product List | Glossary On
Versions: 1 2 3 4 5 6 7 8 9 10 11 12 13 14 15 16 17 18 19 20 21 22 23 24 25 26 27 28 29 30 31 32 33 34 35 36 37 38 39 40 41 42 43 44 45 46 47 48 49 50
000
ASUS41 KAKQ 232016
RWRAKQ

REGIONAL WEATHER ROUNDUP
NATIONAL WEATHER SERVICE WAKEFIELD VA
400 PM EDT WED AUG 23 2017

Note: "fair" indicates few or no clouds below 12,000 feet with no
significant weather and/or obstructions to visibility. * = Denotes
station may not report precipitation (e.g., rain,snow,etc.),
thunder or fog.

VAZ042-051-052>054-056-232100-
NORTHERN VIRGINIA

CITY           SKY/WX    TMP DP  RH WIND       PRES   REMARKS
WASH NATIONAL  PTSUNNY   85  63  47 N8        29.86F
DULLES         PTSUNNY   82  62  50 N10       29.87F
FORT BELVOIR   MOSUNNY   84  62  47 CALM      29.86F
QUANTICO       PTSUNNY   78  72  81 S10       29.87F
FREDERICKSBRG* MOSUNNY   75  68  79 E5        29.86F
STAFFORD*      CLOUDY    77  73  86 S5        29.91F
WARRENTON      MOSUNNY   84  60  44 NE3       29.86F
CULPEPER*      PTSUNNY   84  66  54 N6        29.87F
MANASSAS*      PTSUNNY   84  65  52 NE10      29.87F
LEESBURG*      SUNNY     82  63  51 N9G17     29.88F
WINCHESTER     SUNNY     81  59  47 NW8       29.88F
FRONT ROYAL*   PTCLDY    81  64  57 NE6       29.88S
LURAY*         MOCLDY    82  59  44 N7        29.87F
$$

VAZ048-049-060>072-079>083-232100-
CENTRAL AND SOUTH CENTRAL VIRGINIA

CITY           SKY/WX    TMP DP  RH WIND       PRES   REMARKS
RICHMOND       CLOUDY    76  70  82 N12       29.87S
CHESTERFIELD*  LGT RAIN  74  71  91 CALM      29.88R
PETERSBURG*    HVY RAIN  73  72  99 N12       29.87S
HANOVER        LGT RAIN  73  66  78 N6        29.89S
TAPPAHANNOCK*  CLOUDY    78  62  57 NE6       29.88S
QUINTON*       CLOUDY   N/A N/A N/A N7        29.85S
CHARLOTTSVILLE PTSUNNY   82  69  64 VRB5      29.86F
GORDONSVILLE*  PTCLDY    79  71  76 E3        29.86F
ORANGE*        PTSUNNY   81  68  65 CALM      29.86F
LOUISA*        PTSUNNY   75  70  83 E3        29.87F
BUMPASS*       CLOUDY    73  71  94 E5        29.87F
FARMVILLE*     CLOUDY    82  65  57 E7        29.86S
CREWE*         CLOUDY    75  71  86 NE5       29.87F
FORT PICKETT*  MOCLDY   N/A N/A N/A NE8G18    29.88S
CHASE CITY*    CLOUDY    76  76  99 CALM      29.86S
CLARKSVILLE*   FAIR      88  70  55 NW7       29.83F
SOUTH HILL*    PTSUNNY   83  76  81 N10       29.89S
LAWRENCEVILLE* MOCLDY    77  75  95 N5        29.84S
EMPORIA*       PTSUNNY   73  72  94 N10       29.85R
$$

VAZ088>098-232100-
SOUTHEAST VIRGINIA

CITY           SKY/WX    TMP DP  RH WIND       PRES   REMARKS
NORFOLK        CLOUDY    83  75  77 NE12      29.82S
VIRGINIA BEACH CLOUDY    83  73  72 E9        29.82S THUNDER
NORFOLK NAVAL  CLOUDY    85  72  65 NE14      29.84R
WEST POINT*    CLOUDY    76  72  87 N5        29.86R
SALUDA*        MOCLDY    78  75  90 N8        29.84S
NEWPORT NEWS   CLOUDY    77  69  76 N9        29.83S
LANGLEY AFB    PTSUNNY   83  71  66 N13       29.83R
FORT EUSTIS    DRIZZLE   82  72  69 NE6       29.80S
WILLIAMSBURG*  CLOUDY    81  73  78 CALM      29.83F
HR EXEC AP*    FAIR      84  72  65 NE7       29.79
FRANKLIN*      CLOUDY    80  70  71 SE8       29.82R
US460-WAKEFLD  HVY RAIN  73  73 100 NE9G17    29.85R VSB 1/4
$$

VAZ020-022-025-037-045-232100-
WEST CENTRAL AND SOUTHWEST VIRGINIA

CITY           SKY/WX    TMP DP  RH WIND       PRES   REMARKS
STAUNTON*      MOSUNNY   82  64  53 NE3       29.90F
WAYNESBORO*    CLOUDY    81  66  61 NE6       29.89F
HOT SPRINGS VA PTSUNNY   72  48  43 CALM      30.04S
LYNCHBURG      MOSUNNY   85  65  51 VRB5      29.87F
DANVILLE       MOSUNNY   86  69  56 N7        29.85F
SOUTH BOSTON*  FAIR      87  69  55 N9        29.84F
MARTINSVILLE   CLOUDY    87  67  52 SE3       29.90F
ROANOKE        PTSUNNY   88  57  34 NW8       29.90F
BLACKSBURG     SUNNY     80  62  54 NW6       29.98F
DUBLIN*        CLOUDY    82  60  48 W5        29.96F
MARION*        PTSUNNY   79  43  27 NW9       30.02S
HILLSVILLE*    PTSUNNY   79  55  43 NW8       29.98S
RICHLANDS*     FAIR      78  61  55 W8        30.02F
WISE*          MOSUNNY   77  57  50 CALM      30.04F
ABINGDON*      PTSUNNY   81  62  52 NW7       29.98F
$$

MDZ021>025-VAZ099-100-232100-
SOUTHERN MARYLAND AND THE DELMARVA PENINSULA

CITY           SKY/WX    TMP DP  RH WIND       PRES   REMARKS
PATUXENT RIVER CLOUDY    77  68  73 NW12      29.87S
BAY BRIDGE APT CLOUDY    79  66  65 NE3       29.86F
LEONARDTOWN    CLOUDY    73  68  83 NW3       29.89S
DOVER          PTSUNNY   81  63  54 NW7       29.85F
GEORGETOWN     CLOUDY    81  70  69 N3        29.85F
EASTON         PTSUNNY   77  68  73 CALM      29.90F
CAMBRIDGE      CLOUDY    77  68  73 N10       29.87R
SALISBURY      CLOUDY    79  72  79 NW9       29.85R
OCEAN CITY     LGT RAIN  80  73  79 NE6       29.84F
WALLOPS ISLAND CLOUDY    82  75  79 NE9       29.84R
ACCOMACK*      PTSUNNY   82  74  77 NW6       29.84R
$$

NCZ012>017-030>032-232100-
NORTH CENTRAL AND EASTERN NORTH CAROLINA

CITY           SKY/WX    TMP DP  RH WIND       PRES   REMARKS
ROANOKE RAPIDS MOCLDY    88  75  66 CALM      29.79F HX  97
RALEIGH        PTSUNNY   82  75  79 N5        29.83F
ELIZABETH CITY MOSUNNY   88  76  67 S14       29.80F HX  99
AHOSKIE*         N/A     86  78  76 CALM      29.80F HX  98
EDENTON*       SUNNY     92  77  60 CALM      29.79F HX 106
CURRITUCK*     CLOUDY    85  73  65 E14G22    29.82R
KILL DEVIL HLS SUNNY     78  71  79 S5        29.83S
MANTEO         LGT RAIN  76  70  82 SW20G26   29.83F
CAPE HATTERAS  MOSUNNY   85  79  82 SW12      29.84F HX  98
TARBORO*       NOT AVBL
GOLDSBORO      MOSUNNY   94  70  46 SW12      29.79F HX 100
WASHINGTON     MOSUNNY   90  75  60 S7        29.80F HX 100
GREENVILLE     SUNNY     95  72  46 W5        29.82F HX 103
NEW BERN       MOSUNNY   89  78  70 S13       29.82F HX 103
WILMINGTON     MOSUNNY   91  76  61 S10       29.82F HX 103
$$

VAZ048-232100-
ELSEWHERE

CITY           SKY/WX    TMP DP  RH WIND       PRES   REMARKS
HARRISBURG PA  MOSUNNY   81  55  40 NW12      29.87F
BALTIMORE      PTSUNNY   83  63  50 VRB5      29.86F
ANNAPOLIS      CLOUDY    82  70  66 E6        29.86S
ANDREWS AFB    MOSUNNY   82  63  52 N9        29.86S
PHILADELPHIA   PTSUNNY   83  55  38 NW8       29.85F
HENDERSON NC     N/A     84  69  59 W6        29.84F
GREENSBORO     CLOUDY    86  70  58 VRB3      29.86F
ROCKY MOUNT    MOSUNNY   91  75  59 CALM      29.79F HX 101
$$

VAZ100-232100-
MARINE

STATION/POSITION TIME  TEMP    WIND        PRES    WAVE   SWELL
                       AIR SEA DIR/SP/G            HT/PER HT/PER
                 (UTC) (F)     (DEG/KT/KT) (MB)    (FT/S) (FT/S)
BRANDYWINE LGT   1942   79     340/  8/  9 1010.9F
CAPE MAY NJ      1948   80 79  310/ 10/ 12 1009.9F
LEWES DE         1948   79 78  340/  6/ 11 1010.3F
15NM E FENWICK I 1950   78 78  330/  8/ 12 1010.7F   3/ 6   3/ 6
OCEAN-CITY-INLET 1948   78 78   70/  7/ 10 1010.8F
WACHAPREAGUE VA  1948   85 88  310/  3/  7 1010.1R
THOMAS POINT MD  2000   76 81  150/  7/  8   N/A
GOOSES REEF MD   2000   76 81   90/  4/  6 1012.0    1
COVE POINT MD    1948   76      10/  6/  9 1012.0F
SOLOMONS ISLAND  1948   77 82  340/  5/  9   N/A
BISHOPS HEAD MD  1948   79 83  340/  8/ 11 1011.2R
PINEY POINT MD   1948          360/ 11/ 14   N/A
POTOMAC MD       2000   79 82  350/ 12/ 14 1010.2    1
CAMBRIDGE MD     1948   77 82              1012.2R
LEWISETTA VA     1948   79 82  360/ 10/ 14 1011.1R
RAPPAHANNOCK LGT 1948          350/ 15/ 17 1010.7F
STINGRAY PT      2000   81 83   40/ 16/ 21 1010.4    1/ 2
YORK RVR RNG VA  1948   77      30/ 11/ 12 1010.8R
YORKTOWN VA      1948   76 83   60/ 10/ 11 1009.8R
JAMESTOWN VA     2000      86   30/  8/ 10   N/A     0
DOMINION TERM VA 1948   85      40/  8/ 13 1009.9F
KIPTOPEKE VA     1948      81  120/  4/ 11   N/A
CHES BAY BRIDGE  1948   82 82   50/ 11/ 12 1009.6F
CAPE HENRY VA    1948   81      60/  6/  7   N/A
WILLOUBY STN VA  1948   82      30/ 13/ 14 1010.0R
S CRANEY ISL VA  1948   83      60/ 14/ 16 1009.4F
CAPE HENRY BUOY  2000      82                N/A     2/ 9
1ST LANDING BUOY 2000   82 82              1009.8    1
64NM E OF VA BCH 1950   81 80  200/  6/  8 1010.6F   3/ 9   3/ 9
DUCK PIER NC     1948   81 67  170/ 18/ 23 1009.1F
44056 DUCK FRF   2000      74                N/A     2/ 9
OREGON INLET NC  1942   80 84  190/ 14/ 17 1010.2F
HATTERAS NC      1948   84 81  220/  9/ 13 1010.4F
DIAMOND SHLS NC  1950   84 85  230/ 16/ 19 1010.6F   4/ 5   2/ 8
CAPE LOOKOUT NC  2000   84     220/ 12/ 15 1010.3F
$$



USA.gov is the U.S. government's official web portal to all federal, state and local government web resources and services.